[ hide orbit diagram ]
For accurate long-term ephemerides, please instead use our Horizons system.This orbit viewer was implemented using two-body methods, and hence should not be used for determining accurate long-term trajectories (over several years or decades) or planetary encounter circumstances.
Orbital Elements at Epoch 2459000.5 (2020-May-31.0) TDB
Reference: JPL 12 (heliocentric ecliptic J2000)
Element | Value | Uncertainty (1-sigma) | Units |
e | .06602058638296718 | 7.988e-08 | |
a | 2.862386411076134 | 4.6449e-08 | au |
q | 2.673409981762251 | 2.4652e-07 | au |
i | 1.365375278197198 | 9.8123e-06 | deg |
node | 205.6924830264742 | 0.00032939 | deg |
peri | 203.7266812543416 | 0.00034004 | deg |
M | 138.9344498068385 | 8.8611e-05 | deg |
tp | 2458317.849733906044 (2018-Jul-18.34973391) | 0.00042498 | TDB |
period | 1768.849238871265 4.84 | 4.3055e-05 1.179e-07 | d yr |
n | .2035221499316259 | 4.9539e-09 | deg/d |
Q | 3.051362840390018 | 4.9515e-08 | au |
|
| | Orbit Determination Parameters
Additional Information
|
[ show covariance matrix ]
Physical Parameter Table
Parameter |
Symbol |
Value |
Units |
Sigma |
Reference |
Notes |
absolute magnitude |
H |
16.9 |
|
n/a |
MPO418927 |
|
|
379071 (2008 WK107) Discovered 2008-Nov-30 by Mt. Lemmon Survey at Mount Lemmon |
Reference: | Last Updated: 2013-11-20 |
|
[ show close-approach data ]
|